Regional Weather Roundup
Issued by NWS

Home | Current Version | Previous Version | Text Only | Print | Product List | Glossary On
Versions: 1 2 3 4 5 6 7 8 9 10 11 12 13 14 15 16 17 18 19 20 21 22 23 24 25 26 27 28 29 30 31 32 33 34 35 36 37 38 39 40 41 42 43 44 45 46 47 48 49 50
107
ASUS43 KLMK 021202
RWRKY
KENTUCKY REGIONAL WEATHER ROUNDUP
NATIONAL WEATHER SERVICE LOUISVILLE KY
700 AM EST FRI DEC 02 2016

NOTE "FAIR" INDICATES FEW OR NO CLOUDS BELOW 12,000 FEET
WITH NO SIGNIFICANT WEATHER AND/OR OBSTRUCTIONS TO VISIBILITY.

KYZ001>023-026-027-061>063-070>075-021300-
WESTERN AND SOUTH CENTRAL KENTUCKY

CITY           SKY/WX    TMP DP  RH WIND       PRES   REMARKS
PADUCAH        CLEAR     27  23  85 CALM      30.20R
HENDERSON      CLEAR     27  21  80 CALM      30.20R
OWENSBORO      PTCLDY    26  25  96 CALM      30.20S
HOPKINSVILLE   CLEAR     28  24  87 CALM      30.21R
BOWLING GREEN  PTCLDY    29  25  85 CALM      30.21R
GLASGOW        NOT AVBL
$$

KYZ024-025-028>034-038-045-046-053-021300-
NORTH CENTRAL KENTUCKY

CITY           SKY/WX    TMP DP  RH WIND       PRES   REMARKS
LOUISVILLE/SDF PTCLDY    33  27  78 SW3       30.19R
LOUISVILLE/LOU PTCLDY    30  27  88 CALM      30.19R
FORT KNOX      CLEAR     25  24  96 CALM      30.17R
$$

KYZ035>037-039>044-047>052-055>060-089>105-021300-
NORTHEAST KENTUCKY

CITY           SKY/WX    TMP DP  RH WIND       PRES   REMARKS
LEXINGTON      CLEAR     29  25  85 SW5       30.17R WCI  24
COVINGTON      CLOUDY    36  30  79 W9        30.14R WCI  29
FRANKFORT      CLEAR     29  24  82 SW3       30.17R
$$

KYZ054-064>069-076>088-106>120-021300-
SOUTHEAST KENTUCKY

CITY           SKY/WX    TMP DP  RH WIND       PRES   REMARKS
JACKSON        CLEAR     30  26  85 SW3       30.15R
LONDON         CLEAR     27  24  89 CALM      30.18R
SOMERSET       PTCLDY    27  27 100 CALM      30.21S
MIDDLESBORO    FOG       28  28 100 CALM      30.21R VSB 1/4
MONTICELLO     SUNNY     22  20  92 W10       30.21S WCI  11
$$





USA.gov is the U.S. government's official web portal to all federal, state and local government web resources and services.